Погода Мыс Биллингс

Погода Мыс Биллингс : погода сейчас, прогноз погоды и архив. Всё, что Вы хотите узнать о погоде Мыс Биллингс!

Поиск расширенной информации на нашем сайте:

Другие новости

Новости СМИ2

Главная страница сайта

Новости сайта

02.10.2013

Напоминаем, что на нашем новом сайте вы можете получить высокодетализированные прогнозы погоды по пунктам России, СНГ и мира (включающие важные для авиации метеовеличины, такие как направление и скорость ветра, видимость, явления погоды, количество и форма облачности, нижняя и верхняя граница облачности), а также ознакомиться с разнообразными материалами по авиационной метеорологии и подборкой полезных ссылок на эту тему.

Сайт Метеоцентр.Азия посвящён разработке технологий оптимизации авиаметеорологического обслуживания, включая проектирование и перспективное создание нескольких автоматизированных авиаметеорологических систем:
- система выпуска высокодетальных прогностических карт явлений погоды для нижнего воздушного пространства по России и ближнему зарубежью;
- система верификации прогнозов TAF (выпускаемых синоптиками официальных АМСГ РФ и ближнего зарубежья) и AUTOTAF (выпускаемых сайтом Метеоцентр.Азия) - выявление ошибок, онлайн-сопоставление с фактической погодой METAR, автоматическое внесение коррективов в прогнозы при резком отклонении фактической погоды от прогноза, подсчёт оправдываемости прогнозов по элементам и в целом;
- система обработки, анализа и отображения авиаметеорологической информации для применения провайдерами метеорологической информации.


Погода Мыс Биллингс - сегодня

Время (UTC), дата Ветер
(°,м/с) 
Видим.   Явления Облачность Т
(°С)
Тd
(°С)
f(%) Тe
(°С)
Pmin
(гПа)
dP
(гПа)
Po
(мм)
O2
(г/м3)
Тmin Tmax R s Состояние
почвы
06 26.05.17 010 (С) 3{05}  20000 м    9/9 300 м 
[Sc]
-3 -4.3 91 -5  1010.4  0.1  758  309    -1.8       
09 26.05.17 080 (В) 3{05}  4000 м  слаб. снег  10/10 300 м 
[Sc]
-4.6 -5.9 91 -7  1010.9  0.5  758  311           
12 26.05.17 340 (С) 2{04}  4000 м  слаб. снег  10/10 300 м 
[Sc]
-3.4 -4.8 90 -5  1010.7  -0.2  758  310           
15 26.05.17 320 (СЗ) 1{03}  4000 м  слаб. снег  10/10 300 м 
[Sc]
-2.9 -4.2 91 -2  1010.4  -0.3  758  309           
18 26.05.17 340 (С) 3{05}  4000 м  слаб. снег  10/10 300 м 
[Sc]
-2.9 -4.2 91 -5  1009.9  -0.5  757  309  -4.6    0.4  38  мокрый или
старый снег
50-90% 
21 26.05.17 310 (СЗ) 3{05}  20000 м  {снег}  9/9 300 м 
[St]
-2.3 -4.2 87 -4  1009.4  -0.5  757  308           
03 27.05.17 340 (С) 2{04}  20000 м  {ливн. осадки}  9/6 600 м верхняя 
[Cu hum|Ci fib]
-1.4 -4.4 80 -2  1008.6  -0.6  756  307           
09 27.05.17 110 (В) 1{03}  20000 м    9/9 600 м верхняя 
[Sc|Ci]
-2.6 -4.2 89 -2  1007.9  -0.1  756  308           
12 27.05.17 090 (В) 1{03}  20000 м    9/9 600 м 
[Sc]
-3.8 -5.3 89 -3  1008.1  0.2  756  309           
15 27.05.17 110 (В) 3{05}  20000 м    9/9 600 м 
[Sc]
-4.2 -5.4 91 -6  1008.1  756  310           
18 27.05.17 100 (В) 4{06}  10 км    10/10 600 м 
[Sc]
-4 -5.2 91 -7  1008.2  0.1  756  310  -4.2      38  мокрый или
старый снег
50-90% 
21 27.05.17 100 (В) 5{04}  4000 м  дымка  9/9 600 м 
[Sc]
-2.5 -3.4 94 -6  1008.6  0.4  756  308           
03 28.05.17 090 (В) 6{08}  20000 м    8/8 600 м 
[Sc]
-1.3 -3.6 84 -5  1009.2  0.2  757  307           
09 28.05.17 090 (В) 7{09}  1000 м  дымка  9/8 600 м средняя 
[Sc|Ac As]
-2.7 -3.4 95 -7  1009.9  0.4  757  309           
12 28.05.17 090 (В) 6{08}  0500 м  туман  ?/?  
-3 -3 100 -7  1010.7  0.8  758  309           
15 28.05.17 100 (В) 7{09}  0500 м  туман  ?/?  
-2.1 -2 100 -6  1011  0.3  758  308           
18 28.05.17 110 (В) 5{07}  0500 м  туман  ?/?  
-1.1 -1.1 100 -4  1012.1  1.1  759  307  -3      36  мокрый или
старый снег
50-90% 
21 28.05.17 090 (В) 5{07}  0500 м  туман  ?/?  
-0.9 -0.9 100 -4  1013.1  760  307           
00 29.05.17 100 (В) 6{08}  0500 м  туман  ?/?  
-0.9 -0.9 100 -5  1013.8  0.7  760  307           
03 29.05.17 100 (В) 8-10{10}  0500 м  туман  ?/?  
-0.4 -0.4 100 -5  1014.4  0.6  761  307           
09 29.05.17 090 (В) 7{09}  10 км    10/10 100 м 
[St]
-1.1 -2.4 91 -5  1016.4  1.1  762  309           
15 29.05.17 090 (В) 4{06}  1000 м  дымка  10/10 100 м 
[St]
-1.4 -2.2 94 -4  1018.5  0.6  764  310           
18 29.05.17 070 (В) 3{05}  1000 м  дымка  10/10 100 м 
[St]
-1.7 -2.2 96 -4  1019.4  0.9  764  310  -1.7      36  мокрый или
старый снег
50-90% 
21 29.05.17 050 (СВ) 2{04}  1000 м  дымка  10/10 100 м 
[St]
-2.3 -2.9 96 -3  1020.1  0.7  765  311           
03 30.05.17 360 (С) 2{04}  4000 м  слаб. снег  10/10 100 м 
[St]
-2.6 -3.2 96 -4  1020.4  -0.1  765  312           
Время (UTC), дата Ветер
(°,м/с) 
Видим.   Явления Облачность Т
(°С)
Тd
(°С)
f(%) Тe
(°С)
Pmin
(гПа)
dP
(гПа)
Po
(мм)
O2
(г/м3)
Тmin Tmax R s Состояние
почвы

Для получения пояснительной информации подведите курсор к названию столбца.

ПОГОДА Мыс Биллингс - архив

Всё, что Вы хотите узнать о погоде Мыс Биллингс - удобно и подробно!

Выберите нужную дату (начиная с 1 января 2015* года) и нажмите кнопку "Найти".
Будут отображены архивные сводки погоды по пункту Мыс Биллингс, начиная с указанной даты.


Отображать данные в формате CSV (для использования в таблицах Excel)


Внимание! Наш архив погоды предназначен исключительно для личного некоммерческого использования в познавательных целях. Если Вам необходимы официальные справки о состоянии погоды (для производственных, юридических, коммерческих и т.п. целей), обращайтесь в органы Росгидромета.

*Примечание: данная дата относится к архиву по метеостанциям СССР (Россия, СНГ, Балтия).
Архив по метеостанциям Зарубежной Европы и Азии (кроме Китая) хранится 10 дней, по другим регионам земного шара (Китай, Африка, Америка, Австралия, Океания) - 1 день.

Мыс Биллингс - район местоположения метеостанции


Название, широта, долгота, высота метеостанции:
Мыс Биллингс 69.88°ш. 175.76°д. 3 м над ур. моря [Российская Федерация]

Дополнительная информация

В oтличие oт бoльшинства пoгoдных сайтoв мы публикуем пoдрoбную метеoинфoрмацию в детальнoм прoфессиoнальнoм фoрмате.

Характеристики температуры и влажнoсти вoздуха измеряются на высoте 2 м в тени вдали oт зданий и деревьев.
Скoрoсть ветра измеряется на высoте 10 м (на урoвне рoста челoвека скoрoсть ветра ниже в 1.5-2 раза). Если метеoстанция нахoдится в гoрoде или в лесу, тo скoрoсть ветра занижена на 2-4 м/с пo сравнению с oткрытым местoм. Скoрoсть ветра над акватoриями крупных рек и oзёр, а также на вершинах хoлмoв на 2-5 м/с выше, чем в oбычных услoвиях.
Атмoсфернoе давление в разных тoчках местнoсти мoжет значительнo oтличаться oт давления на метеoстанции, в зависимoсти oт услoвий рельефа (при пoдъёме на 10 м давление пoнижается примернo на 1 мм рт.ст.).